Time,TemperatureF,DewpointF,PressureIn,WindDirection,WindDirectionDegrees,WindSpeedMPH,WindSpeedGustMPH,Humidity,HourlyPrecipIn,Conditions,Clouds,dailyrainin,SoftwareType,DateUTC
2013-07-01 00:03:00,67.5,45.0,29.58,NNE,12,2.0,10.0,45,0.00,,,0.00,weatherlink.com 1.10,2013-07-01 08:03:00,
2013-07-01 00:18:00,66.5,45.0,29.58,West,262,0.0,4.0,47,0.00,,,0.00,weatherlink.com 1.10,2013-07-01 08:18:00,
2013-07-01 00:33:00,65.9,45.0,29.58,West,266,1.0,7.0,48,0.00,,,0.00,weatherlink.com 1.10,2013-07-01 08:33:00,
2013-07-01 00:48:00,65.0,46.0,29.58,West,276,3.0,6.0,51,0.00,,,0.00,weatherlink.com 1.10,2013-07-01 08:48:00,
2013-07-01 01:03:00,64.8,47.0,29.58,West,270,2.0,8.0,52,0.00,,,0.00,weatherlink.com 1.10,2013-07-01 09:03:00,
2013-07-01 01:18:00,64.4,47.0,29.58,West,280,3.0,6.0,54,0.00,,,0.00,weatherlink.com 1.10,2013-07-01 09:18:00,
2013-07-01 01:33:00,64.0,47.0,29.58,West,278,1.0,6.0,55,0.00,,,0.00,weatherlink.com 1.10,2013-07-01 09:33:00,
2013-07-01 01:48:00,63.5,48.0,29.58,West,264,2.0,5.0,57,0.00,,,0.00,weatherlink.com 1.10,2013-07-01 09:48:00,
2013-07-01 02:03:00,63.2,48.0,29.58,East,96,0.0,5.0,58,0.00,,,0.00,weatherlink.com 1.10,2013-07-01 10:03:00,
2013-07-01 02:18:00,62.9,48.0,29.58,WNW,288,0.0,6.0,59,0.00,,,0.00,weatherlink.com 1.10,2013-07-01 10:18:00,
2013-07-01 02:33:00,62.6,48.0,29.58,SW,235,0.0,4.0,59,0.00,,,0.00,weatherlink.com 1.10,2013-07-01 10:33:00,
2013-07-01 02:49:00,62.2,47.0,29.58,ESE,105,0.0,4.0,59,0.00,,,0.00,weatherlink.com 1.10,2013-07-01 10:49:00,
2013-07-01 03:04:00,62.0,48.0,29.58,West,274,0.0,5.0,60,0.00,,,0.00,weatherlink.com 1.10,2013-07-01 11:04:00,
2013-07-01 03:19:00,61.5,47.0,29.58,WNW,290,0.0,5.0,60,0.00,,,0.00,weatherlink.com 1.10,2013-07-01 11:19:00,
2013-07-01 03:34:00,60.7,47.0,29.57,West,281,1.0,3.0,61,0.00,,,0.00,weatherlink.com 1.10,2013-07-01 11:34:00,
2013-07-01 03:49:00,60.0,47.0,29.57,West,259,1.0,2.0,62,0.00,,,0.00,weatherlink.com 1.10,2013-07-01 11:49:00,
2013-07-01 04:04:00,59.8,47.0,29.57,WSW,255,1.0,1.0,62,0.00,,,0.00,weatherlink.com 1.10,2013-07-01 12:04:00,
2013-07-01 04:19:00,59.6,47.0,29.57,NW,325,0.0,2.0,63,0.00,,,0.00,weatherlink.com 1.10,2013-07-01 12:19:00,
2013-07-01 04:34:00,59.5,46.0,29.57,NNW,337,1.0,2.0,62,0.00,,,0.00,weatherlink.com 1.10,2013-07-01 12:34:00,
2013-07-01 04:49:00,60.3,47.0,29.57,North,354,0.0,1.0,61,0.00,,,0.00,weatherlink.com 1.10,2013-07-01 12:49:00,
2013-07-01 05:04:00,60.6,46.0,29.57,WSW,248,0.0,1.0,60,0.00,,,0.00,weatherlink.com 1.10,2013-07-01 13:04:00,
2013-07-01 05:19:00,60.8,47.0,29.56,West,266,0.0,1.0,60,0.00,,,0.00,weatherlink.com 1.10,2013-07-01 13:19:00,
2013-07-01 05:34:00,61.1,46.0,29.56,WSW,245,0.0,3.0,58,0.00,,,0.00,weatherlink.com 1.10,2013-07-01 13:34:00,
2013-07-01 05:49:00,61.4,47.0,29.55,West,273,0.0,1.0,59,0.00,,,0.00,weatherlink.com 1.10,2013-07-01 13:49:00,
2013-07-01 06:04:00,61.5,46.0,29.55,West,259,0.0,1.0,58,0.00,,,0.00,weatherlink.com 1.10,2013-07-01 14:04:00,
2013-07-01 06:19:00,62.0,47.0,29.55,West,259,0.0,0.0,58,0.00,,,0.00,weatherlink.com 1.10,2013-07-01 14:19:00,
2013-07-01 06:36:00,62.0,48.0,29.55,WSW,258,0.0,0.0,60,0.00,,,0.00,weatherlink.com 1.10,2013-07-01 14:36:00,
2013-07-01 06:49:00,62.8,47.0,29.55,West,260,0.0,0.0,56,0.00,,,0.00,weatherlink.com 1.10,2013-07-01 14:49:00,
2013-07-01 07:04:00,64.8,48.0,29.55,WSW,257,0.0,0.0,54,0.00,,,0.00,weatherlink.com 1.10,2013-07-01 15:04:00,
2013-07-01 07:19:00,65.7,49.0,29.55,ENE,68,2.0,2.0,55,0.00,,,0.00,weatherlink.com 1.10,2013-07-01 15:19:00,
2013-07-01 07:34:00,66.7,48.0,29.55,ENE,64,2.0,3.0,52,0.00,,,0.00,weatherlink.com 1.10,2013-07-01 15:34:00,
2013-07-01 07:49:00,66.5,48.0,29.55,East,81,0.0,0.0,51,0.00,,,0.00,weatherlink.com 1.10,2013-07-01 15:49:00,
2013-07-01 08:04:00,64.9,48.0,29.54,NE,41,1.0,3.0,54,0.00,,,0.00,weatherlink.com 1.10,2013-07-01 16:04:00,
2013-07-01 08:19:00,64.1,48.0,29.54,ENE,66,2.0,3.0,56,0.00,,,0.00,weatherlink.com 1.10,2013-07-01 16:19:00,
2013-07-01 08:34:00,64.4,48.0,29.53,NE,53,2.0,3.0,56,0.00,,,0.00,weatherlink.com 1.10,2013-07-01 16:34:00,
2013-07-01 08:49:00,67.6,49.0,29.53,ENE,58,1.0,4.0,51,0.00,,,0.00,weatherlink.com 1.10,2013-07-01 16:49:00,
2013-07-01 09:04:00,69.5,48.0,29.53,West,276,1.0,2.0,47,0.00,,,0.00,weatherlink.com 1.10,2013-07-01 17:04:00,
2013-07-01 09:19:00,70.7,48.0,29.53,ENE,57,4.0,4.0,45,0.00,,,0.00,weatherlink.com 1.10,2013-07-01 17:19:00,
2013-07-01 09:34:00,70.0,48.0,29.52,ENE,67,2.0,4.0,45,0.00,,,0.00,weatherlink.com 1.10,2013-07-01 17:34:00,
2013-07-01 09:49:00,70.5,48.0,29.52,SE,128,2.0,4.0,45,0.00,,,0.00,weatherlink.com 1.10,2013-07-01 17:49:00,
2013-07-01 10:04:00,70.1,48.0,29.51,ESE,114,2.0,5.0,45,0.00,,,0.00,weatherlink.com 1.10,2013-07-01 18:04:00,
2013-07-01 10:19:00,70.9,48.0,29.51,ESE,105,2.0,4.0,45,0.00,,,0.00,weatherlink.com 1.10,2013-07-01 18:19:00,
2013-07-01 10:35:00,72.0,48.0,29.51,East,101,0.0,4.0,43,0.00,,,0.00,weatherlink.com 1.10,2013-07-01 18:35:00,
2013-07-01 10:50:00,71.5,48.0,29.50,NE,53,1.0,4.0,43,0.00,,,0.00,weatherlink.com 1.10,2013-07-01 18:50:00,
2013-07-01 11:05:00,72.1,46.0,29.50,NNW,328,2.0,5.0,40,0.00,,,0.00,weatherlink.com 1.10,2013-07-01 19:05:00,
2013-07-01 11:20:00,71.0,47.0,29.50,SSE,152,2.0,5.0,42,0.00,,,0.00,weatherlink.com 1.10,2013-07-01 19:20:00,
2013-07-01 11:35:00,71.1,47.0,29.49,SE,146,1.0,4.0,43,0.00,,,0.00,weatherlink.com 1.10,2013-07-01 19:35:00,
2013-07-01 11:50:00,72.1,48.0,29.49,SW,229,1.0,3.0,43,0.00,,,0.00,weatherlink.com 1.10,2013-07-01 19:50:00,
2013-07-01 12:05:00,72.0,48.0,29.49,NE,44,3.0,5.0,42,0.00,,,0.00,weatherlink.com 1.10,2013-07-01 20:05:00,
2013-07-01 12:20:00,73.2,47.0,29.48,ENE,68,1.0,5.0,40,0.00,,,0.00,weatherlink.com 1.10,2013-07-01 20:20:00,
2013-07-01 12:35:00,72.9,47.0,29.48,East,88,1.0,5.0,40,0.00,,,0.00,weatherlink.com 1.10,2013-07-01 20:35:00,
2013-07-01 12:50:00,74.3,48.0,29.47,ENE,71,5.0,6.0,39,0.00,,,0.00,weatherlink.com 1.10,2013-07-01 20:50:00,
2013-07-01 13:05:00,74.1,48.0,29.46,ESE,120,1.0,6.0,39,0.00,,,0.00,weatherlink.com 1.10,2013-07-01 21:05:00,
2013-07-01 13:20:00,74.4,48.0,29.46,SE,142,2.0,4.0,40,0.00,,,0.00,weatherlink.com 1.10,2013-07-01 21:20:00,
2013-07-01 13:35:00,74.8,48.0,29.46,ESE,123,3.0,5.0,39,0.00,,,0.00,weatherlink.com 1.10,2013-07-01 21:35:00,
2013-07-01 13:50:00,74.4,47.0,29.45,ENE,58,1.0,4.0,38,0.00,,,0.00,weatherlink.com 1.10,2013-07-01 21:50:00,
2013-07-01 14:05:00,75.9,48.0,29.45,East,93,2.0,5.0,37,0.00,,,0.00,weatherlink.com 1.10,2013-07-01 22:05:00,
2013-07-01 14:20:00,75.4,48.0,29.45,ESE,114,2.0,4.0,38,0.00,,,0.00,weatherlink.com 1.10,2013-07-01 22:20:00,
2013-07-01 14:35:00,76.0,48.0,29.44,East,93,6.0,6.0,37,0.00,,,0.00,weatherlink.com 1.10,2013-07-01 22:35:00,
2013-07-01 14:50:00,76.3,48.0,29.44,WSW,248,2.0,5.0,37,0.00,,,0.00,weatherlink.com 1.10,2013-07-01 22:50:00,
2013-07-01 15:05:00,77.5,47.0,29.43,SSE,158,2.0,5.0,34,0.00,,,0.00,weatherlink.com 1.10,2013-07-01 23:05:00,
2013-07-01 15:20:00,78.5,46.0,29.43,SSW,210,0.0,4.0,32,0.00,,,0.00,weatherlink.com 1.10,2013-07-01 23:20:00,
2013-07-01 15:35:00,75.3,46.0,29.42,South,181,1.0,3.0,35,0.00,,,0.00,weatherlink.com 1.10,2013-07-01 23:35:00,
2013-07-01 15:50:00,74.1,47.0,29.42,ESE,113,1.0,3.0,38,0.00,,,0.00,weatherlink.com 1.10,2013-07-01 23:50:00,
2013-07-01 16:05:00,73.6,46.0,29.42,SE,124,0.0,0.0,37,0.00,,,0.00,weatherlink.com 1.10,2013-07-02 00:05:00,
2013-07-01 16:20:00,73.6,46.0,29.41,SE,127,0.0,0.0,38,0.00,,,0.00,weatherlink.com 1.10,2013-07-02 00:20:00,
2013-07-01 16:35:00,74.2,49.0,29.41,WSW,238,1.0,1.0,41,0.00,,,0.00,weatherlink.com 1.10,2013-07-02 00:35:00,
2013-07-01 16:50:00,74.2,49.0,29.40,WSW,246,1.0,2.0,41,0.00,,,0.00,weatherlink.com 1.10,2013-07-02 00:50:00,
2013-07-01 17:05:00,74.2,49.0,29.40,WNW,283,2.0,9.0,41,0.00,,,0.00,weatherlink.com 1.10,2013-07-02 01:05:00,
2013-07-01 17:20:00,74.2,50.0,29.40,NW,322,3.0,8.0,42,0.00,,,0.00,weatherlink.com 1.10,2013-07-02 01:20:00,
2013-07-01 17:35:00,76.5,49.0,29.39,WSW,244,4.0,9.0,38,0.00,,,0.00,weatherlink.com 1.10,2013-07-02 01:35:00,
2013-07-01 17:51:00,75.9,50.0,29.39,WNW,288,3.0,5.0,40,0.00,,,0.00,weatherlink.com 1.10,2013-07-02 01:51:00,
2013-07-01 18:05:00,74.0,47.0,29.39,WNW,302,2.0,11.0,39,0.00,,,0.00,weatherlink.com 1.10,2013-07-02 02:05:00,
2013-07-01 18:21:00,71.2,48.0,29.39,WSW,238,3.0,13.0,44,0.00,,,0.00,weatherlink.com 1.10,2013-07-02 02:21:00,
2013-07-01 18:36:00,67.9,44.0,29.39,WNW,293,6.0,13.0,42,0.00,,,0.00,weatherlink.com 1.10,2013-07-02 02:36:00,
2013-07-01 18:51:00,64.4,50.0,29.41,SSE,158,3.0,6.0,59,0.00,,,0.00,weatherlink.com 1.10,2013-07-02 02:51:00,
2013-07-01 19:06:00,59.2,51.0,29.41,NE,53,6.0,11.0,74,0.01,,,0.01,weatherlink.com 1.10,2013-07-02 03:06:00,
2013-07-01 19:21:00,58.2,51.0,29.42,West,263,1.0,11.0,76,0.01,,,0.01,weatherlink.com 1.10,2013-07-02 03:21:00,
2013-07-01 19:36:00,57.6,51.0,29.44,ENE,61,2.0,2.0,79,0.01,,,0.01,weatherlink.com 1.10,2013-07-02 03:36:00,
2013-07-01 19:51:00,58.8,51.0,29.43,SSW,203,0.0,3.0,76,0.01,,,0.01,weatherlink.com 1.10,2013-07-02 03:51:00,
2013-07-01 20:06:00,58.9,51.0,29.44,WSW,238,0.0,2.0,75,0.00,,,0.01,weatherlink.com 1.10,2013-07-02 04:06:00,
2013-07-01 20:21:00,59.6,50.0,29.44,West,263,0.0,2.0,71,0.00,,,0.01,weatherlink.com 1.10,2013-07-02 04:21:00,
2013-07-01 20:36:00,59.5,51.0,29.44,WSW,252,0.0,1.0,73,0.00,,,0.01,weatherlink.com 1.10,2013-07-02 04:36:00,
2013-07-01 20:51:00,59.2,50.0,29.44,WSW,250,0.0,0.0,71,0.00,,,0.01,weatherlink.com 1.10,2013-07-02 04:51:00,
2013-07-01 21:06:00,59.6,51.0,29.44,WSW,248,0.0,0.0,73,0.00,,,0.01,weatherlink.com 1.10,2013-07-02 05:06:00,
2013-07-01 21:21:00,59.6,50.0,29.44,WSW,252,0.0,0.0,71,0.00,,,0.01,weatherlink.com 1.10,2013-07-02 05:21:00,
2013-07-01 21:36:00,60.7,45.0,29.45,West,260,0.0,2.0,57,0.00,,,0.01,weatherlink.com 1.10,2013-07-02 05:36:00,
2013-07-01 21:51:00,61.5,46.0,29.45,SW,233,0.0,1.0,57,0.00,,,0.01,weatherlink.com 1.10,2013-07-02 05:51:00,
2013-07-01 22:06:00,61.5,46.0,29.45,WSW,248,0.0,0.0,58,0.00,,,0.01,weatherlink.com 1.10,2013-07-02 06:06:00,
2013-07-01 22:21:00,60.3,46.0,29.45,WSW,248,0.0,0.0,59,0.00,,,0.01,weatherlink.com 1.10,2013-07-02 06:21:00,
2013-07-01 22:36:00,60.6,45.0,29.46,WSW,250,0.0,1.0,57,0.00,,,0.01,weatherlink.com 1.10,2013-07-02 06:36:00,
2013-07-01 22:51:00,60.0,47.0,29.46,WSW,242,0.0,1.0,63,0.00,,,0.01,weatherlink.com 1.10,2013-07-02 06:51:00,
2013-07-01 23:06:00,59.3,46.0,29.46,WSW,252,1.0,2.0,61,0.00,,,0.01,weatherlink.com 1.10,2013-07-02 07:06:00,
2013-07-01 23:21:00,59.5,44.0,29.46,West,264,1.0,4.0,58,0.00,,,0.01,weatherlink.com 1.10,2013-07-02 07:21:00,
2013-07-01 23:36:00,59.2,44.0,29.46,NW,304,2.0,4.0,58,0.00,,,0.01,weatherlink.com 1.10,2013-07-02 07:36:00,
2013-07-01 23:51:00,58.7,43.0,29.47,WSW,252,2.0,5.0,56,0.00,,,0.01,weatherlink.com 1.10,2013-07-02 07:51:00,